Weather History for Cincinnati, OH

Change the Weather History Date:

Tuesday, December 17, 2013

  Actual Average Record
Temperature  
Mean Temperature 32 °F -  
Max Temperature 34 °F 40 °F 70 °F (1984)
Min Temperature 28 °F 24 °F -8 °F (1989)
Degree Days  
Heating Degree Days 33    
Moisture  
Dew Point 27 °F    
Average Humidity 81    
Maximum Humidity 96    
Minimum Humidity 70    
Precipitation  
Precipitation 0.00 in - - ()
Sea Level Pressure  
Sea Level Pressure 30.10 in    
Wind  
Wind Speed 6 mph (West)    
Max Wind Speed 13 mph    
Max Gust Speed 21 mph    
Visibility 8 miles    
Events      
Averages and records for this station are not official NWS values.
T = Trace of Precipitation, MM = Missing Value Source: NWS Daily Summary

Daily Weather History Graph

Daily Weather History Graph

Search for Another Location

Airport:

Trip Planner

Search our weather history database for the weather conditions in past years. The results will help you decide how hot, cold, wet, or windy it might be!

Date:

Astronomy

Dec. 17, 2013 Rise Set
Actual Time 7:51 AM EST 5:16 PM EST
Civil Twilight 7:21 AM EST 5:46 PM EST
Nautical Twilight 6:47 AM EST 6:20 PM EST
Astronomical Twilight 6:14 AM EST 6:53 PM EST
Moon 5:55 PM EST (12/17) 7:47 AM EST (12/17)
Length of Visible Light 10h 25m
Length of Day
9h 25m
Full, 100% of the Moon is Illuminated
Dec 17
Full
Dec 25
Last Quarter
Jan 1
New
Jan 7
First Quarter
Jan 15
Full

Hourly Weather History & Observations

Time (EST) Temp. Windchill Dew Point Humidity Pressure Visibility Wind Dir Wind Speed Gust Speed Precip Events Conditions
12:53 AM 32.0 °F - 30.0 °F 92% 30.02 in 6.0 mi Calm Calm - N/A   Clear
1:53 AM 30.9 °F - 30.0 °F 96% 30.02 in 4.0 mi Calm Calm - N/A   Clear
2:53 AM 32.0 °F - 30.9 °F 96% 30.04 in 5.0 mi Calm Calm - N/A   Scattered Clouds
3:53 AM 30.9 °F 27.5 °F 30.0 °F 96% 30.04 in 5.0 mi NNW 3.5 mph - N/A   Mostly Cloudy
4:36 AM 33.8 °F 25.3 °F 30.2 °F 87% 30.04 in 6.0 mi NNW 11.5 mph 17.3 mph N/A   Overcast
4:53 AM 33.1 °F 26.9 °F 28.9 °F 85% 30.05 in 6.0 mi WNW 6.9 mph - N/A   Overcast
5:04 AM 33.8 °F 27.0 °F 28.4 °F 81% 30.04 in 7.0 mi NW 8.1 mph - N/A   Overcast
5:42 AM 32.0 °F 24.8 °F 28.4 °F 87% 30.05 in 5.0 mi NNW 8.1 mph - N/A   Overcast
5:53 AM 32.0 °F 24.8 °F 28.0 °F 85% 30.07 in 5.0 mi NNW 8.1 mph - N/A   Overcast
6:53 AM 30.9 °F 22.8 °F 28.0 °F 89% 30.09 in 5.0 mi WNW 9.2 mph - N/A   Overcast
7:53 AM 30.0 °F - 28.0 °F 92% 30.12 in 6.0 mi Calm Calm - N/A   Overcast
8:43 AM 30.2 °F 26.7 °F 26.6 °F 86% 30.11 in 7.0 mi WNW 3.5 mph - N/A   Overcast
8:53 AM 30.9 °F 26.2 °F 27.0 °F 85% 30.12 in 6.0 mi West 4.6 mph - N/A   Overcast
9:53 AM 30.9 °F 25.2 °F 26.1 °F 82% 30.11 in 10.0 mi SSW 5.8 mph - N/A   Overcast
10:53 AM 30.9 °F 23.5 °F 25.0 °F 79% 30.14 in 10.0 mi WNW 8.1 mph - N/A   Overcast
11:36 AM 30.2 °F 23.4 °F 26.6 °F 86% 30.12 in 8.0 mi WNW 6.9 mph - N/A   Overcast
11:53 AM 30.9 °F 24.3 °F 26.1 °F 82% 30.12 in 8.0 mi WNW 6.9 mph - N/A   Overcast
12:53 PM 30.9 °F 25.2 °F 26.1 °F 82% 30.07 in 10.0 mi West 5.8 mph - N/A   Mostly Cloudy
1:53 PM 33.1 °F 26.9 °F 27.0 °F 78% 30.05 in 10.0 mi SW 6.9 mph - N/A   Overcast
2:39 PM 33.8 °F 25.3 °F 26.6 °F 75% 30.04 in 10.0 mi West 11.5 mph - N/A   Overcast
2:53 PM 34.0 °F 26.6 °F 26.1 °F 73% 30.06 in 10.0 mi West 9.2 mph - N/A   Overcast
3:19 PM 33.8 °F 26.4 °F 26.6 °F 75% 30.06 in 10.0 mi NW 9.2 mph - N/A   Overcast
3:53 PM 34.0 °F 26.6 °F 26.1 °F 73% 30.08 in 10.0 mi WNW 9.2 mph - N/A   Overcast
4:53 PM 33.1 °F 26.9 °F 26.1 °F 75% 30.09 in 10.0 mi WSW 6.9 mph - N/A   Mostly Cloudy
5:53 PM 33.1 °F 24.4 °F 24.1 °F 70% 30.10 in 10.0 mi West 11.5 mph - N/A   Overcast
6:19 PM 33.8 °F 24.8 °F 24.8 °F 70% 30.10 in 10.0 mi West 12.7 mph 19.6 mph N/A   Overcast
6:53 PM 33.1 °F 24.9 °F 25.0 °F 72% 30.13 in 10.0 mi West 10.4 mph - N/A   Overcast
7:02 PM 33.8 °F 25.8 °F 24.8 °F 70% 30.12 in 10.0 mi West 10.4 mph - N/A   Overcast
7:53 PM 32.0 °F 22.5 °F 24.1 °F 73% 30.16 in 10.0 mi WNW 12.7 mph - N/A   Mostly Cloudy
8:00 PM 32.0 °F 23.0 °F 24.8 °F 75% 30.15 in 10.0 mi West 11.5 mph - N/A   Overcast
8:53 PM 30.9 °F 21.2 °F 24.1 °F 76% 30.19 in 10.0 mi WNW 12.7 mph 20.7 mph N/A   Overcast
9:53 PM 30.9 °F 21.7 °F 24.1 °F 76% 30.20 in 10.0 mi WSW 11.5 mph - N/A   Overcast
10:53 PM 30.9 °F 22.2 °F 24.1 °F 76% 30.21 in 10.0 mi WSW 10.4 mph - N/A   Mostly Cloudy
11:11 PM 30.2 °F 22.6 °F 24.8 °F 80% 30.20 in 10.0 mi SW 8.1 mph - N/A   Scattered Clouds
11:53 PM 28.9 °F 21.1 °F 23.0 °F 78% 30.21 in 10.0 mi SW 8.1 mph - N/A   Clear